Time,TemperatureF,DewpointF,PressureIn,WindDirection,WindDirectionDegrees,WindSpeedMPH,WindSpeedGustMPH,Humidity,HourlyPrecipIn,Conditions,Clouds,dailyrainin,SoftwareType,DateUTC
2013-01-19 00:02:00,32.7,32.0,30.29,ENE,68,0.0,0.0,97,0.00,,,0.00,weatherlink.com 1.10,2013-01-19 08:02:00,
2013-01-19 00:17:00,31.8,31.0,30.29,ENE,68,0.0,0.0,97,0.00,,,0.00,weatherlink.com 1.10,2013-01-19 08:17:00,
2013-01-19 00:32:00,31.8,31.0,30.29,ENE,68,0.0,0.0,98,0.00,,,0.00,weatherlink.com 1.10,2013-01-19 08:32:00,
2013-01-19 00:47:00,31.1,30.0,30.29,ENE,68,0.0,0.0,97,0.00,,,0.00,weatherlink.com 1.10,2013-01-19 08:47:00,
2013-01-19 01:02:00,30.7,30.0,30.29,ENE,68,0.0,0.0,98,0.00,,,0.00,weatherlink.com 1.10,2013-01-19 09:02:00,
2013-01-19 01:18:00,29.4,29.0,30.29,ENE,68,0.0,0.0,97,0.00,,,0.00,weatherlink.com 1.10,2013-01-19 09:18:00,
2013-01-19 01:32:00,29.0,29.0,30.30,ENE,68,0.0,0.0,98,0.00,,,0.00,weatherlink.com 1.10,2013-01-19 09:32:00,
2013-01-19 01:47:00,29.9,29.0,30.30,ENE,68,0.0,0.0,98,0.00,,,0.00,weatherlink.com 1.10,2013-01-19 09:47:00,
2013-01-19 02:02:00,30.0,30.0,30.30,ENE,68,0.0,0.0,98,0.00,,,0.00,weatherlink.com 1.10,2013-01-19 10:02:00,
2013-01-19 02:17:00,30.2,30.0,30.30,ENE,68,1.0,1.0,98,0.00,,,0.00,weatherlink.com 1.10,2013-01-19 10:17:00,
2013-01-19 02:32:00,30.1,30.0,30.31,ENE,68,0.0,0.0,98,0.00,,,0.00,weatherlink.com 1.10,2013-01-19 10:32:00,
2013-01-19 02:47:00,30.0,30.0,30.31,ENE,68,0.0,0.0,98,0.00,,,0.00,weatherlink.com 1.10,2013-01-19 10:47:00,
2013-01-19 03:02:00,29.4,29.0,30.30,ENE,68,0.0,0.0,98,0.00,,,0.00,weatherlink.com 1.10,2013-01-19 11:02:00,
2013-01-19 04:48:00,28.8,28.0,30.30,ENE,68,0.0,0.0,98,0.00,,,0.00,weatherlink.com 1.10,2013-01-19 12:48:00,
2013-01-19 05:03:00,28.6,28.0,30.30,ENE,68,0.0,0.0,98,0.00,,,0.00,weatherlink.com 1.10,2013-01-19 13:03:00,
2013-01-19 05:18:00,28.1,28.0,30.30,ENE,68,0.0,1.0,98,0.00,,,0.00,weatherlink.com 1.10,2013-01-19 13:18:00,
2013-01-19 05:33:00,28.1,28.0,30.31,East,81,0.0,1.0,98,0.00,,,0.00,weatherlink.com 1.10,2013-01-19 13:33:00,
2013-01-19 05:48:00,27.9,27.0,30.30,East,101,0.0,1.0,98,0.00,,,0.00,weatherlink.com 1.10,2013-01-19 13:48:00,
2013-01-19 06:03:00,27.4,27.0,30.31,East,101,0.0,0.0,98,0.00,,,0.00,weatherlink.com 1.10,2013-01-19 14:03:00,
2013-01-19 06:18:00,27.4,27.0,30.31,East,101,0.0,0.0,98,0.00,,,0.00,weatherlink.com 1.10,2013-01-19 14:18:00,
2013-01-19 06:33:00,27.4,27.0,30.31,East,101,0.0,0.0,98,0.00,,,0.00,weatherlink.com 1.10,2013-01-19 14:33:00,
2013-01-19 06:48:00,27.5,27.0,30.31,SE,141,0.0,1.0,98,0.00,,,0.00,weatherlink.com 1.10,2013-01-19 14:48:00,
2013-01-19 07:03:00,27.7,27.0,30.32,ESE,115,0.0,1.0,98,0.00,,,0.00,weatherlink.com 1.10,2013-01-19 15:03:00,
2013-01-19 07:18:00,27.7,27.0,30.32,ESE,115,0.0,0.0,98,0.00,,,0.00,weatherlink.com 1.10,2013-01-19 15:18:00,
2013-01-19 07:33:00,27.6,27.0,30.32,ESE,114,0.0,0.0,98,0.00,,,0.00,weatherlink.com 1.10,2013-01-19 15:33:00,
2013-01-19 07:48:00,27.6,27.0,30.32,East,91,0.0,1.0,98,0.00,,,0.00,weatherlink.com 1.10,2013-01-19 15:48:00,
2013-01-19 08:03:00,27.7,27.0,30.32,NNW,335,0.0,2.0,98,0.00,,,0.00,weatherlink.com 1.10,2013-01-19 16:03:00,
2013-01-19 08:18:00,27.7,27.0,30.33,NNE,16,1.0,1.0,98,0.00,,,0.00,weatherlink.com 1.10,2013-01-19 16:18:00,
2013-01-19 08:33:00,27.7,27.0,30.33,WNW,297,0.0,1.0,98,0.00,,,0.00,weatherlink.com 1.10,2013-01-19 16:33:00,
2013-01-19 08:48:00,27.8,27.0,30.33,WNW,303,0.0,1.0,98,0.00,,,0.00,weatherlink.com 1.10,2013-01-19 16:48:00,
2013-01-19 09:03:00,27.9,27.0,30.33,NW,317,0.0,1.0,98,0.00,,,0.00,weatherlink.com 1.10,2013-01-19 17:03:00,
2013-01-19 09:33:00,28.5,28.0,30.34,NNW,328,0.0,0.0,98,0.00,,,0.00,weatherlink.com 1.10,2013-01-19 17:33:00,
2013-01-19 09:49:00,28.6,28.0,30.34,West,276,0.0,1.0,98,0.00,,,0.00,weatherlink.com 1.10,2013-01-19 17:49:00,
2013-01-19 10:03:00,29.3,29.0,30.34,WSW,240,0.0,1.0,98,0.00,,,0.00,weatherlink.com 1.10,2013-01-19 18:03:00,
2013-01-19 10:18:00,29.6,29.0,30.34,West,261,0.0,1.0,98,0.00,,,0.00,weatherlink.com 1.10,2013-01-19 18:18:00,
2013-01-19 10:33:00,30.2,30.0,30.34,SW,218,0.0,1.0,98,0.00,,,0.00,weatherlink.com 1.10,2013-01-19 18:33:00,
2013-01-19 10:48:00,30.4,30.0,30.34,SSW,195,0.0,1.0,98,0.00,,,0.00,weatherlink.com 1.10,2013-01-19 18:48:00,
2013-01-19 11:03:00,30.6,30.0,30.34,West,260,0.0,1.0,98,0.00,,,0.00,weatherlink.com 1.10,2013-01-19 19:03:00,
2013-01-19 11:19:00,30.9,30.0,30.33,SE,142,0.0,1.0,98,0.00,,,0.00,weatherlink.com 1.10,2013-01-19 19:19:00,
2013-01-19 11:33:00,31.4,31.0,30.32,SW,214,0.0,1.0,98,0.00,,,0.00,weatherlink.com 1.10,2013-01-19 19:33:00,
2013-01-19 11:48:00,31.9,31.0,30.32,SW,224,0.0,1.0,98,0.00,,,0.00,weatherlink.com 1.10,2013-01-19 19:48:00,
2013-01-19 12:03:00,32.1,32.0,30.32,SSW,210,0.0,2.0,98,0.00,,,0.00,weatherlink.com 1.10,2013-01-19 20:03:00,
2013-01-19 12:48:00,32.8,32.0,30.30,West,274,0.0,2.0,97,0.00,,,0.00,weatherlink.com 1.10,2013-01-19 20:48:00,
2013-01-19 13:03:00,33.1,33.0,30.30,SE,141,0.0,1.0,98,0.00,,,0.00,weatherlink.com 1.10,2013-01-19 21:03:00,
2013-01-19 13:48:00,33.4,33.0,30.29,SE,126,0.0,2.0,97,0.00,,,0.00,weatherlink.com 1.10,2013-01-19 21:48:00,
2013-01-19 14:03:00,33.4,33.0,30.28,SW,214,0.0,1.0,97,0.00,,,0.00,weatherlink.com 1.10,2013-01-19 22:03:00,
2013-01-19 14:19:00,33.4,33.0,30.28,SW,225,0.0,2.0,97,0.00,,,0.00,weatherlink.com 1.10,2013-01-19 22:19:00,
2013-01-19 14:33:00,33.3,33.0,30.28,SW,229,0.0,1.0,97,0.00,,,0.00,weatherlink.com 1.10,2013-01-19 22:33:00,
2013-01-19 14:48:00,33.7,33.0,30.28,WSW,255,0.0,1.0,98,0.00,,,0.00,weatherlink.com 1.10,2013-01-19 22:48:00,
2013-01-19 15:03:00,33.4,33.0,30.28,West,259,1.0,1.0,97,0.00,,,0.00,weatherlink.com 1.10,2013-01-19 23:03:00,
2013-01-19 15:18:00,33.7,33.0,30.28,South,191,0.0,1.0,98,0.00,,,0.00,weatherlink.com 1.10,2013-01-19 23:18:00,
2013-01-19 15:33:00,33.3,33.0,30.28,SSW,208,0.0,1.0,98,0.00,,,0.00,weatherlink.com 1.10,2013-01-19 23:33:00,
2013-01-19 15:49:00,32.9,32.0,30.28,WSW,239,0.0,0.0,98,0.00,,,0.00,weatherlink.com 1.10,2013-01-19 23:49:00,
2013-01-19 16:04:00,32.5,32.0,30.28,WSW,239,0.0,0.0,98,0.00,,,0.00,weatherlink.com 1.10,2013-01-20 00:04:00,
2013-01-19 16:34:00,31.8,31.0,30.28,WSW,238,0.0,0.0,98,0.00,,,0.00,weatherlink.com 1.10,2013-01-20 00:34:00,
2013-01-19 16:49:00,31.0,31.0,30.28,WSW,239,0.0,0.0,98,0.00,,,0.00,weatherlink.com 1.10,2013-01-20 00:49:00,
2013-01-19 17:04:00,30.5,30.0,30.28,WSW,240,0.0,0.0,98,0.00,,,0.00,weatherlink.com 1.10,2013-01-20 01:04:00,
2013-01-19 17:34:00,30.0,30.0,30.28,WSW,239,0.0,0.0,98,0.00,,,0.00,weatherlink.com 1.10,2013-01-20 01:34:00,
2013-01-19 17:49:00,29.5,29.0,30.29,WSW,239,0.0,0.0,98,0.00,,,0.00,weatherlink.com 1.10,2013-01-20 01:49:00,
2013-01-19 18:04:00,29.4,29.0,30.29,WSW,240,0.0,0.0,98,0.00,,,0.00,weatherlink.com 1.10,2013-01-20 02:04:00,
2013-01-19 18:19:00,29.3,29.0,30.30,WSW,240,0.0,0.0,98,0.00,,,0.00,weatherlink.com 1.10,2013-01-20 02:19:00,
2013-01-19 18:34:00,29.0,29.0,30.30,WSW,240,0.0,0.0,98,0.00,,,0.00,weatherlink.com 1.10,2013-01-20 02:34:00,
2013-01-19 18:49:00,28.9,28.0,30.30,WSW,240,0.0,0.0,98,0.00,,,0.00,weatherlink.com 1.10,2013-01-20 02:49:00,
2013-01-19 19:19:00,28.9,28.0,30.31,NNE,16,0.0,0.0,98,0.00,,,0.00,weatherlink.com 1.10,2013-01-20 03:19:00,
2013-01-19 19:34:00,28.6,28.0,30.32,NNE,15,0.0,0.0,98,0.00,,,0.00,weatherlink.com 1.10,2013-01-20 03:34:00,
2013-01-19 19:49:00,28.4,28.0,30.32,NNE,15,0.0,0.0,98,0.00,,,0.00,weatherlink.com 1.10,2013-01-20 03:49:00,
2013-01-19 20:04:00,28.5,28.0,30.32,NNE,16,0.0,1.0,98,0.00,,,0.00,weatherlink.com 1.10,2013-01-20 04:04:00,
2013-01-19 20:19:00,27.9,27.0,30.33,NNE,15,0.0,0.0,98,0.00,,,0.00,weatherlink.com 1.10,2013-01-20 04:19:00,
2013-01-19 20:34:00,28.1,28.0,30.33,NNE,16,0.0,1.0,98,0.00,,,0.00,weatherlink.com 1.10,2013-01-20 04:34:00,
2013-01-19 20:49:00,28.0,28.0,30.33,NNE,16,0.0,0.0,98,0.00,,,0.00,weatherlink.com 1.10,2013-01-20 04:49:00,
2013-01-19 21:04:00,28.1,28.0,30.33,NNE,16,0.0,0.0,98,0.00,,,0.00,weatherlink.com 1.10,2013-01-20 05:04:00,
2013-01-19 21:19:00,27.5,27.0,30.33,NNE,15,0.0,0.0,98,0.00,,,0.00,weatherlink.com 1.10,2013-01-20 05:19:00,
2013-01-19 21:34:00,27.5,27.0,30.34,NNE,15,0.0,0.0,98,0.00,,,0.00,weatherlink.com 1.10,2013-01-20 05:34:00,
2013-01-19 21:49:00,27.4,27.0,30.34,NNE,16,0.0,0.0,98,0.00,,,0.00,weatherlink.com 1.10,2013-01-20 05:49:00,
2013-01-19 22:04:00,27.4,27.0,30.34,NNE,16,0.0,0.0,98,0.00,,,0.00,weatherlink.com 1.10,2013-01-20 06:04:00,
2013-01-19 22:19:00,27.8,27.0,30.34,NNE,16,0.0,0.0,98,0.00,,,0.00,weatherlink.com 1.10,2013-01-20 06:19:00,
2013-01-19 22:34:00,28.2,28.0,30.35,NNE,16,0.0,1.0,98,0.00,,,0.00,weatherlink.com 1.10,2013-01-20 06:34:00,
2013-01-19 22:49:00,28.5,28.0,30.35,NE,34,0.0,1.0,98,0.00,,,0.00,weatherlink.com 1.10,2013-01-20 06:49:00,
2013-01-19 23:04:00,28.7,28.0,30.35,ENE,64,0.0,1.0,98,0.00,,,0.00,weatherlink.com 1.10,2013-01-20 07:04:00,
2013-01-19 23:19:00,28.8,28.0,30.35,ENE,63,0.0,0.0,98,0.00,,,0.00,weatherlink.com 1.10,2013-01-20 07:19:00,
2013-01-19 23:34:00,28.9,28.0,30.35,ENE,64,0.0,0.0,98,0.00,,,0.00,weatherlink.com 1.10,2013-01-20 07:34:00,
2013-01-19 23:49:00,28.9,28.0,30.35,ENE,65,0.0,1.0,98,0.00,,,0.00,weatherlink.com 1.10,2013-01-20 07:49:00,